Datum;"Wasserstand in cm";"Stationsnummer: 6943709";"Stationsname: Reitwein, �berleitung UP";"Gew?sser: Ableiter �berleitung Reitwein";"Fehlwerte: -777"
"04.04.2024 00:00";73
"04.04.2024 00:15";73
"04.04.2024 00:30";73
"04.04.2024 00:45";73
"04.04.2024 01:00";73
"04.04.2024 01:15";73
"04.04.2024 01:30";73
"04.04.2024 01:45";73
"04.04.2024 02:00";73
"04.04.2024 02:15";73
"04.04.2024 02:30";73
"04.04.2024 02:45";73
"04.04.2024 03:00";73
"04.04.2024 03:15";73
"04.04.2024 03:30";73
"04.04.2024 03:45";73
"04.04.2024 04:00";73
"04.04.2024 04:15";73
"04.04.2024 04:30";73
"04.04.2024 04:45";73
"04.04.2024 05:00";73
"04.04.2024 05:15";74
"04.04.2024 05:30";73
"04.04.2024 05:45";74
"04.04.2024 06:00";74
"04.04.2024 06:15";74
"04.04.2024 06:30";74
"04.04.2024 06:45";74
"04.04.2024 07:00";74
"04.04.2024 07:15";74
"04.04.2024 07:30";74
"04.04.2024 07:45";74
"04.04.2024 08:00";74
"04.04.2024 08:15";74
"04.04.2024 08:30";74
"04.04.2024 08:45";73
"04.04.2024 09:00";74
"04.04.2024 09:15";74
"04.04.2024 09:30";74
"04.04.2024 09:45";74
"04.04.2024 10:00";74
"04.04.2024 10:15";74
"04.04.2024 10:30";72
"04.04.2024 10:45";72
"04.04.2024 11:00";72
"04.04.2024 11:15";71
"04.04.2024 11:30";71
"04.04.2024 11:45";71
"04.04.2024 12:00";71
"04.04.2024 12:15";71
"04.04.2024 12:30";71
"04.04.2024 12:45";71
"04.04.2024 13:00";70
"04.04.2024 13:15";70
"04.04.2024 13:30";71
"04.04.2024 13:45";71
"04.04.2024 14:00";70
"04.04.2024 14:15";70
"04.04.2024 14:30";70
"04.04.2024 14:45";71
"04.04.2024 15:00";71
"04.04.2024 15:15";70
"04.04.2024 15:30";70
"04.04.2024 15:45";70
"04.04.2024 16:00";70
"04.04.2024 16:15";70
"04.04.2024 16:30";70
"04.04.2024 16:45";70
"04.04.2024 17:00";70
"04.04.2024 17:15";70
"04.04.2024 17:30";70
"04.04.2024 17:45";70
"04.04.2024 18:00";70
"04.04.2024 18:15";70
"04.04.2024 18:30";70
"04.04.2024 18:45";70
"04.04.2024 19:00";70
"04.04.2024 19:15";70
"04.04.2024 19:30";70
"04.04.2024 19:45";70
"04.04.2024 20:00";70
"04.04.2024 20:15";70
"04.04.2024 20:30";70
"04.04.2024 20:45";70
"04.04.2024 21:00";70
"04.04.2024 21:15";70
"04.04.2024 21:30";70
"04.04.2024 21:45";70
"04.04.2024 22:00";70
"04.04.2024 22:15";70
"04.04.2024 22:30";70
"04.04.2024 22:45";70
"04.04.2024 23:00";70
"04.04.2024 23:15";70
"04.04.2024 23:30";70
"04.04.2024 23:45";70
"05.04.2024 00:00";70
"05.04.2024 00:15";70
"05.04.2024 00:30";70
"05.04.2024 00:45";70
"05.04.2024 01:00";70
"05.04.2024 01:15";70
"05.04.2024 01:30";70
"05.04.2024 01:45";70
"05.04.2024 02:00";70
"05.04.2024 02:15";70
"05.04.2024 02:30";70
"05.04.2024 02:45";70
"05.04.2024 03:00";70
"05.04.2024 03:15";70
"05.04.2024 03:30";70
"05.04.2024 03:45";70
"05.04.2024 04:00";70
"05.04.2024 04:15";70
"05.04.2024 04:30";70
"05.04.2024 04:45";70
"05.04.2024 05:00";70
"05.04.2024 05:15";70
"05.04.2024 05:30";70
"05.04.2024 05:45";70
"05.04.2024 06:00";70
"05.04.2024 06:15";70
"05.04.2024 06:30";70
"05.04.2024 06:45";70
"05.04.2024 07:00";70
"05.04.2024 07:15";70
"05.04.2024 07:30";70
"05.04.2024 07:45";70
"05.04.2024 08:00";70
"05.04.2024 08:15";70
"05.04.2024 08:30";70
"05.04.2024 08:45";70
"05.04.2024 09:00";70
"05.04.2024 09:15";70
"05.04.2024 09:30";70
"05.04.2024 09:45";70
"05.04.2024 10:00";70
"05.04.2024 10:15";70
"05.04.2024 10:30";70
"05.04.2024 10:45";69
"05.04.2024 11:00";70
"05.04.2024 11:15";70
"05.04.2024 11:30";70
"05.04.2024 11:45";70
"05.04.2024 12:00";70
"05.04.2024 12:15";69
"05.04.2024 12:30";70
"05.04.2024 12:45";70
"05.04.2024 13:00";70
"05.04.2024 13:15";69
"05.04.2024 13:30";69
"05.04.2024 13:45";69
"05.04.2024 14:00";69
"05.04.2024 14:15";70
"05.04.2024 14:30";70
"05.04.2024 14:45";70
"05.04.2024 15:00";69
"05.04.2024 15:15";69
"05.04.2024 15:30";70
"05.04.2024 15:45";69
"05.04.2024 16:00";69
"05.04.2024 16:15";69
"05.04.2024 16:30";69
"05.04.2024 16:45";69
"05.04.2024 17:00";69
"05.04.2024 17:15";69
"05.04.2024 17:30";69
"05.04.2024 17:45";69
"05.04.2024 18:00";69
"05.04.2024 18:15";69
"05.04.2024 18:30";69
"05.04.2024 18:45";69
"05.04.2024 19:00";69
"05.04.2024 19:15";69
"05.04.2024 19:30";69
"05.04.2024 19:45";69
"05.04.2024 20:00";69
"05.04.2024 20:15";69
"05.04.2024 20:30";70
"05.04.2024 20:45";69
"05.04.2024 21:00";70
"05.04.2024 21:15";70
"05.04.2024 21:30";70
"05.04.2024 21:45";70
"05.04.2024 22:00";69
"05.04.2024 22:15";70
"05.04.2024 22:30";70
"05.04.2024 22:45";69
"05.04.2024 23:00";70
"05.04.2024 23:15";70
"05.04.2024 23:30";70
"05.04.2024 23:45";70
"06.04.2024 00:00";70
"06.04.2024 00:15";70
"06.04.2024 00:30";70
"06.04.2024 00:45";70
"06.04.2024 01:00";70
"06.04.2024 01:15";70
"06.04.2024 01:30";70
"06.04.2024 01:45";70
"06.04.2024 02:00";70
"06.04.2024 02:15";70
"06.04.2024 02:30";70
"06.04.2024 02:45";70
"06.04.2024 03:00";70
"06.04.2024 03:15";69
"06.04.2024 03:30";70
"06.04.2024 03:45";70
"06.04.2024 04:00";70
"06.04.2024 04:15";70
"06.04.2024 04:30";70
"06.04.2024 04:45";70
"06.04.2024 05:00";70
"06.04.2024 05:15";70
"06.04.2024 05:30";69
"06.04.2024 05:45";70
"06.04.2024 06:00";70
"06.04.2024 06:15";70
"06.04.2024 06:30";70
"06.04.2024 06:45";70
"06.04.2024 07:00";69
"06.04.2024 07:15";70
"06.04.2024 07:30";69
"06.04.2024 07:45";70
"06.04.2024 08:00";69
"06.04.2024 08:15";69
"06.04.2024 08:30";70
"06.04.2024 08:45";69
"06.04.2024 09:00";69
"06.04.2024 09:15";70
"06.04.2024 09:30";70
"06.04.2024 09:45";69
"06.04.2024 10:00";70
"06.04.2024 10:15";70
"06.04.2024 10:30";69
"06.04.2024 10:45";70
"06.04.2024 11:00";70
"06.04.2024 11:15";69
"06.04.2024 11:30";69
"06.04.2024 11:45";69
"06.04.2024 12:00";70
"06.04.2024 12:15";69
"06.04.2024 12:30";69
"06.04.2024 12:45";69
"06.04.2024 13:00";69
"06.04.2024 13:15";69
"06.04.2024 13:30";69
"06.04.2024 13:45";69
"06.04.2024 14:00";69
"06.04.2024 14:15";69
"06.04.2024 14:30";69
"06.04.2024 14:45";69
"06.04.2024 15:00";69
"06.04.2024 15:15";69
"06.04.2024 15:30";69
"06.04.2024 15:45";69
"06.04.2024 16:00";69
"06.04.2024 16:15";69
"06.04.2024 16:30";69
"06.04.2024 16:45";69
"06.04.2024 17:00";69
"06.04.2024 17:15";69
"06.04.2024 17:30";69
"06.04.2024 17:45";68
"06.04.2024 18:00";69
"06.04.2024 18:15";69
"06.04.2024 18:30";69
"06.04.2024 18:45";69
"06.04.2024 19:00";69
"06.04.2024 19:15";69
"06.04.2024 19:30";69
"06.04.2024 19:45";69
"06.04.2024 20:00";69
"06.04.2024 20:15";69
"06.04.2024 20:30";69
"06.04.2024 20:45";69
"06.04.2024 21:00";69
"06.04.2024 21:15";69
"06.04.2024 21:30";69
"06.04.2024 21:45";69
"06.04.2024 22:00";69
"06.04.2024 22:15";69
"06.04.2024 22:30";69
"06.04.2024 22:45";69
"06.04.2024 23:00";69
"06.04.2024 23:15";69
"06.04.2024 23:30";69
"06.04.2024 23:45";69
"07.04.2024 00:00";69
"07.04.2024 00:15";69
"07.04.2024 00:30";69
"07.04.2024 00:45";69
"07.04.2024 01:00";69
"07.04.2024 01:15";70
"07.04.2024 01:30";69
"07.04.2024 01:45";69
"07.04.2024 02:00";69
"07.04.2024 02:15";69
"07.04.2024 02:30";69
"07.04.2024 02:45";69
"07.04.2024 03:00";70
"07.04.2024 03:15";69
"07.04.2024 03:30";69
"07.04.2024 03:45";70
"07.04.2024 04:00";69
"07.04.2024 04:15";69
"07.04.2024 04:30";69
"07.04.2024 04:45";69
"07.04.2024 05:00";69
"07.04.2024 05:15";69
"07.04.2024 05:30";69
"07.04.2024 05:45";69
"07.04.2024 06:00";69
"07.04.2024 06:15";70
"07.04.2024 06:30";69
"07.04.2024 06:45";70
"07.04.2024 07:00";69
"07.04.2024 07:15";70
"07.04.2024 07:30";69
"07.04.2024 07:45";70
"07.04.2024 08:00";70
"07.04.2024 08:15";70
"07.04.2024 08:30";70
"07.04.2024 08:45";70
"07.04.2024 09:00";70
"07.04.2024 09:15";69
"07.04.2024 09:30";70
"07.04.2024 09:45";69
"07.04.2024 10:00";69
"07.04.2024 10:15";70
"07.04.2024 10:30";69
"07.04.2024 10:45";70
"07.04.2024 11:00";70
"07.04.2024 11:15";70
"07.04.2024 11:30";70
"07.04.2024 11:45";70
"07.04.2024 12:00";70
"07.04.2024 12:15";70
"07.04.2024 12:30";70
"07.04.2024 12:45";70
"07.04.2024 13:00";69
"07.04.2024 13:15";70
"07.04.2024 13:30";69
"07.04.2024 13:45";70
"07.04.2024 14:00";69
"07.04.2024 14:15";70
"07.04.2024 14:30";70
"07.04.2024 14:45";69
"07.04.2024 15:00";70
"07.04.2024 15:15";69
"07.04.2024 15:30";69
"07.04.2024 15:45";69
"07.04.2024 16:00";69
"07.04.2024 16:15";70
"07.04.2024 16:30";69
"07.04.2024 16:45";69
"07.04.2024 17:00";70
"07.04.2024 17:15";69
"07.04.2024 17:30";69
"07.04.2024 17:45";69
"07.04.2024 18:00";69
"07.04.2024 18:15";69
"07.04.2024 18:30";69
"07.04.2024 18:45";70
"07.04.2024 19:00";69
"07.04.2024 19:15";69
"07.04.2024 19:30";69
"07.04.2024 19:45";70
"07.04.2024 20:00";70
"07.04.2024 20:15";69
"07.04.2024 20:30";69
"07.04.2024 20:45";70
"07.04.2024 21:00";69
"07.04.2024 21:15";69
"07.04.2024 21:30";69
"07.04.2024 21:45";70
"07.04.2024 22:00";69
"07.04.2024 22:15";70
"07.04.2024 22:30";70
"07.04.2024 22:45";70
"07.04.2024 23:00";70
"07.04.2024 23:15";69
"07.04.2024 23:30";70
"07.04.2024 23:45";70
"08.04.2024 00:00";70
"08.04.2024 00:15";70
"08.04.2024 00:30";70
"08.04.2024 00:45";70
"08.04.2024 01:00";70
"08.04.2024 01:15";70
"08.04.2024 01:30";69
"08.04.2024 01:45";70
"08.04.2024 02:00";70
"08.04.2024 02:15";70
"08.04.2024 02:30";70
"08.04.2024 02:45";70
"08.04.2024 03:00";70
"08.04.2024 03:15";70
"08.04.2024 03:30";70
"08.04.2024 03:45";70
"08.04.2024 04:00";70
"08.04.2024 04:15";70
"08.04.2024 04:30";70
"08.04.2024 04:45";70
"08.04.2024 05:00";70
"08.04.2024 05:15";70
"08.04.2024 05:30";70
"08.04.2024 05:45";70
"08.04.2024 06:00";70
"08.04.2024 06:15";70
"08.04.2024 06:30";70
"08.04.2024 06:45";70
"08.04.2024 07:00";70
"08.04.2024 07:15";70
"08.04.2024 07:30";70
"08.04.2024 07:45";70
"08.04.2024 08:00";70
"08.04.2024 08:15";70
"08.04.2024 08:30";70
"08.04.2024 08:45";70
"08.04.2024 09:00";70
"08.04.2024 09:15";70
"08.04.2024 09:30";70
"08.04.2024 09:45";70
"08.04.2024 10:00";70
"08.04.2024 10:15";70
"08.04.2024 10:30";70
"08.04.2024 10:45";70
"08.04.2024 11:00";70
"08.04.2024 11:15";70
"08.04.2024 11:30";70
"08.04.2024 11:45";70
"08.04.2024 12:00";70
"08.04.2024 12:15";70
"08.04.2024 12:30";70
"08.04.2024 12:45";70
"08.04.2024 13:00";70
"08.04.2024 13:15";70
"08.04.2024 13:30";69
"08.04.2024 13:45";70
"08.04.2024 14:00";70
"08.04.2024 14:15";70
"08.04.2024 14:30";70
"08.04.2024 14:45";70
"08.04.2024 15:00";70
"08.04.2024 15:15";70
"08.04.2024 15:30";70
"08.04.2024 15:45";70
"08.04.2024 16:00";70
"08.04.2024 16:15";69
"08.04.2024 16:30";70
"08.04.2024 16:45";70
"08.04.2024 17:00";70
"08.04.2024 17:15";70
"08.04.2024 17:30";70
"08.04.2024 17:45";70
"08.04.2024 18:00";70
"08.04.2024 18:15";70
"08.04.2024 18:30";69
"08.04.2024 18:45";70
"08.04.2024 19:00";70
"08.04.2024 19:15";69
"08.04.2024 19:30";70
"08.04.2024 19:45";70
"08.04.2024 20:00";69
"08.04.2024 20:15";70
"08.04.2024 20:30";70
"08.04.2024 20:45";70
"08.04.2024 21:00";70
"08.04.2024 21:15";70
"08.04.2024 21:30";70
"08.04.2024 21:45";69
"08.04.2024 22:00";70
"08.04.2024 22:15";70
"08.04.2024 22:30";70
"08.04.2024 22:45";70
"08.04.2024 23:00";70
"08.04.2024 23:15";70
"08.04.2024 23:30";69
"08.04.2024 23:45";70
"09.04.2024 00:00";70
"09.04.2024 00:15";70
"09.04.2024 00:30";70
"09.04.2024 00:45";70
"09.04.2024 01:00";70
"09.04.2024 01:15";70
"09.04.2024 01:30";69
"09.04.2024 01:45";70
"09.04.2024 02:00";70
"09.04.2024 02:15";70
"09.04.2024 02:30";70
"09.04.2024 02:45";70
"09.04.2024 03:00";70
"09.04.2024 03:15";70
"09.04.2024 03:30";70
"09.04.2024 03:45";70
"09.04.2024 04:00";70
"09.04.2024 04:15";70
"09.04.2024 04:30";70
"09.04.2024 04:45";70
"09.04.2024 05:00";70
"09.04.2024 05:15";70
"09.04.2024 05:30";70
"09.04.2024 05:45";70
"09.04.2024 06:00";70
"09.04.2024 06:15";70
"09.04.2024 06:30";70
"09.04.2024 06:45";70
"09.04.2024 07:00";70
"09.04.2024 07:15";70
"09.04.2024 07:30";70
"09.04.2024 07:45";70
"09.04.2024 08:00";70
"09.04.2024 08:15";70
"09.04.2024 08:30";70
"09.04.2024 08:45";70
"09.04.2024 09:00";70
"09.04.2024 09:15";70
"09.04.2024 09:30";70
"09.04.2024 09:45";70
"09.04.2024 10:00";70
"09.04.2024 10:15";70
"09.04.2024 10:30";70
"09.04.2024 10:45";70
"09.04.2024 11:00";70
"09.04.2024 11:15";70
"09.04.2024 11:30";70
"09.04.2024 11:45";70
"09.04.2024 12:00";70
"09.04.2024 12:15";70
"09.04.2024 12:30";70
"09.04.2024 12:45";70
"09.04.2024 13:00";70
"09.04.2024 13:15";70
"09.04.2024 13:30";70
"09.04.2024 13:45";70
"09.04.2024 14:00";70
"09.04.2024 14:15";70
"09.04.2024 14:30";70
"09.04.2024 14:45";70
"09.04.2024 15:00";70
"09.04.2024 15:15";70
"09.04.2024 15:30";70
"09.04.2024 15:45";70
"09.04.2024 16:00";70
"09.04.2024 16:15";70
"09.04.2024 16:30";70
"09.04.2024 16:45";70
"09.04.2024 17:00";70
"09.04.2024 17:15";70
"09.04.2024 17:30";70
"09.04.2024 17:45";70
"09.04.2024 18:00";70
"09.04.2024 18:15";70
"09.04.2024 18:30";70
"09.04.2024 18:45";70
"09.04.2024 19:00";70
"09.04.2024 19:15";70
"09.04.2024 19:30";70
"09.04.2024 19:45";70
"09.04.2024 20:00";70
"09.04.2024 20:15";70
"09.04.2024 20:30";70
"09.04.2024 20:45";70
"09.04.2024 21:00";70
"09.04.2024 21:15";70
"09.04.2024 21:30";70
"09.04.2024 21:45";70
"09.04.2024 22:00";70
"09.04.2024 22:15";70
"09.04.2024 22:30";70
"09.04.2024 22:45";70
"09.04.2024 23:00";70
"09.04.2024 23:15";70
"09.04.2024 23:30";70
"09.04.2024 23:45";70
"10.04.2024 00:00";70
"10.04.2024 00:15";70
"10.04.2024 00:30";70
"10.04.2024 00:45";70
"10.04.2024 01:00";70
"10.04.2024 01:15";70
"10.04.2024 01:30";70
"10.04.2024 01:45";70
"10.04.2024 02:00";70
"10.04.2024 02:15";70
"10.04.2024 02:30";70
"10.04.2024 02:45";70
"10.04.2024 03:00";70
"10.04.2024 03:15";70
"10.04.2024 03:30";69
"10.04.2024 03:45";70
"10.04.2024 04:00";70
"10.04.2024 04:15";70
"10.04.2024 04:30";70
"10.04.2024 04:45";70
"10.04.2024 05:00";70
"10.04.2024 05:15";70
"10.04.2024 05:30";70
"10.04.2024 05:45";70
"10.04.2024 06:00";70
"10.04.2024 06:15";70
"10.04.2024 06:30";70
"10.04.2024 06:45";70
"10.04.2024 07:00";70
"10.04.2024 07:15";70
"10.04.2024 07:30";70
"10.04.2024 07:45";70
"10.04.2024 08:00";70
"10.04.2024 08:15";70
"10.04.2024 08:30";70
"10.04.2024 08:45";70
"10.04.2024 09:00";70
"10.04.2024 09:15";70
"10.04.2024 09:30";70
"10.04.2024 09:45";70
"10.04.2024 10:00";70
"10.04.2024 10:15";70
"10.04.2024 10:30";70
"10.04.2024 10:45";70
"10.04.2024 11:00";70
"10.04.2024 11:15";69
"10.04.2024 11:30";70
"10.04.2024 11:45";70
"10.04.2024 12:00";70
"10.04.2024 12:15";70
"10.04.2024 12:30";69
"10.04.2024 12:45";70
"10.04.2024 13:00";70
"10.04.2024 13:15";70
"10.04.2024 13:30";70
"10.04.2024 13:45";69
"10.04.2024 14:00";70
"10.04.2024 14:15";70
"10.04.2024 14:30";69
"10.04.2024 14:45";69
"10.04.2024 15:00";69
"10.04.2024 15:15";70
"10.04.2024 15:30";70
"10.04.2024 15:45";69
"10.04.2024 16:00";69
"10.04.2024 16:15";70
"10.04.2024 16:30";69
"10.04.2024 16:45";69
"10.04.2024 17:00";69
"10.04.2024 17:15";69
"10.04.2024 17:30";69
"10.04.2024 17:45";69
"10.04.2024 18:00";69
"10.04.2024 18:15";70
"10.04.2024 18:30";69
"10.04.2024 18:45";69
"10.04.2024 19:00";69
"10.04.2024 19:15";69
"10.04.2024 19:30";69
"10.04.2024 19:45";69
"10.04.2024 20:00";69
"10.04.2024 20:15";69
"10.04.2024 20:30";69
"10.04.2024 20:45";69
"10.04.2024 21:00";69
"10.04.2024 21:15";69
"10.04.2024 21:30";69
"10.04.2024 21:45";69
"10.04.2024 22:00";69
"10.04.2024 22:15";69
"10.04.2024 22:30";69
"10.04.2024 22:45";69
"10.04.2024 23:00";69
"10.04.2024 23:15";69
"10.04.2024 23:30";69
"10.04.2024 23:45";70
"11.04.2024 00:00";69
"11.04.2024 00:15";69
"11.04.2024 00:30";69
"11.04.2024 00:45";69
"11.04.2024 01:00";69
"11.04.2024 01:15";69
"11.04.2024 01:30";69
"11.04.2024 01:45";69
"11.04.2024 02:00";69
"11.04.2024 02:15";69
"11.04.2024 02:30";69
"11.04.2024 02:45";69
"11.04.2024 03:00";69
"11.04.2024 03:15";69
"11.04.2024 03:30";69
"11.04.2024 03:45";69
"11.04.2024 04:00";69
"11.04.2024 04:15";69
"11.04.2024 04:30";69
"11.04.2024 04:45";69
"11.04.2024 05:00";69
"11.04.2024 05:15";69
"11.04.2024 05:30";69
"11.04.2024 05:45";69
"11.04.2024 06:00";69
"11.04.2024 06:15";69
"11.04.2024 06:30";69
"11.04.2024 06:45";69
"11.04.2024 07:00";69
"11.04.2024 07:15";69
"11.04.2024 07:30";69
"11.04.2024 07:45";69
"11.04.2024 08:00";69
"11.04.2024 08:15";68
"11.04.2024 08:30";69
"11.04.2024 08:45";69
"11.04.2024 09:00";69
"11.04.2024 09:15";69
"11.04.2024 09:30";69
"11.04.2024 09:45";69
"11.04.2024 10:00";69
"11.04.2024 10:15";69
"11.04.2024 10:30";69
"11.04.2024 10:45";69
"11.04.2024 11:00";69
"11.04.2024 11:15";69
"11.04.2024 11:30";69
"11.04.2024 11:45";69
"11.04.2024 12:00";69
"11.04.2024 12:15";69
"11.04.2024 12:30";69
"11.04.2024 12:45";69
"11.04.2024 13:00";69
"11.04.2024 13:15";69
"11.04.2024 13:30";69
"11.04.2024 13:45";69
"11.04.2024 14:00";69
"11.04.2024 14:15";69
"11.04.2024 14:30";69
"11.04.2024 14:45";68
"11.04.2024 15:00";69
"11.04.2024 15:15";69
"11.04.2024 15:30";69
"11.04.2024 15:45";69
"11.04.2024 16:00";69
"11.04.2024 16:15";69
"11.04.2024 16:30";68
"11.04.2024 16:45";68
"11.04.2024 17:00";68
"11.04.2024 17:15";69
"11.04.2024 17:30";68
"11.04.2024 17:45";68
"11.04.2024 18:00";68
"11.04.2024 18:15";68
"11.04.2024 18:30";68
"11.04.2024 18:45";69
"11.04.2024 19:00";69
"11.04.2024 19:15";68
"11.04.2024 19:30";68
"11.04.2024 19:45";68
"11.04.2024 20:00";69
"11.04.2024 20:15";68
"11.04.2024 20:30";69
"11.04.2024 20:45";68
"11.04.2024 21:00";69
"11.04.2024 21:15";68
"11.04.2024 21:30";68
"11.04.2024 21:45";69
"11.04.2024 22:00";68
"11.04.2024 22:15";68
"11.04.2024 22:30";69
"11.04.2024 22:45";68
"11.04.2024 23:00";68
"11.04.2024 23:15";68
"11.04.2024 23:30";69
"11.04.2024 23:45";69
"12.04.2024 00:00";68
"12.04.2024 00:15";68
"12.04.2024 00:30";69
"12.04.2024 00:45";68
"12.04.2024 01:00";69
"12.04.2024 01:15";68
"12.04.2024 01:30";68
"12.04.2024 01:45";68
"12.04.2024 02:00";69
"12.04.2024 02:15";68
"12.04.2024 02:30";68
"12.04.2024 02:45";69
"12.04.2024 03:00";69
"12.04.2024 03:15";68
"12.04.2024 03:30";69
"12.04.2024 03:45";69
"12.04.2024 04:00";69
"12.04.2024 04:15";69
"12.04.2024 04:30";68
"12.04.2024 04:45";69
"12.04.2024 05:00";68
"12.04.2024 05:15";68
"12.04.2024 05:30";69
"12.04.2024 05:45";69
"12.04.2024 06:00";68
"12.04.2024 06:15";68
"12.04.2024 06:30";68
"12.04.2024 06:45";68
"12.04.2024 07:00";68
"12.04.2024 07:15";68
"12.04.2024 07:30";68
"12.04.2024 07:45";68
"12.04.2024 08:00";68
"12.04.2024 08:15";69
"12.04.2024 08:30";68
"12.04.2024 08:45";68
"12.04.2024 09:00";68
"12.04.2024 09:15";68
"12.04.2024 09:30";69
"12.04.2024 09:45";68
"12.04.2024 10:00";68
"12.04.2024 10:15";68
"12.04.2024 10:30";68
"12.04.2024 10:45";69
"12.04.2024 11:00";68
"12.04.2024 11:15";68
"12.04.2024 11:30";69
"12.04.2024 11:45";69
"12.04.2024 12:00";68
"12.04.2024 12:15";68
"12.04.2024 12:30";68
"12.04.2024 12:45";69
"12.04.2024 13:00";68
"12.04.2024 13:15";68
"12.04.2024 13:30";69
"12.04.2024 13:45";68
"12.04.2024 14:00";68
"12.04.2024 14:15";68
"12.04.2024 14:30";68
"12.04.2024 14:45";68
"12.04.2024 15:00";68
"12.04.2024 15:15";68
"12.04.2024 15:30";68
"12.04.2024 15:45";68
"12.04.2024 16:00";69
"12.04.2024 16:15";68
"12.04.2024 16:30";68
"12.04.2024 16:45";68
"12.04.2024 17:00";68
"12.04.2024 17:15";68
"12.04.2024 17:30";68
"12.04.2024 17:45";68
"12.04.2024 18:00";68
"12.04.2024 18:15";68
"12.04.2024 18:30";68
"12.04.2024 18:45";68
"12.04.2024 19:00";68
"12.04.2024 19:15";68
"12.04.2024 19:30";68
"12.04.2024 19:45";68
"12.04.2024 20:00";68
"12.04.2024 20:15";68
"12.04.2024 20:30";68
"12.04.2024 20:45";68
"12.04.2024 21:00";68
"12.04.2024 21:15";68
"12.04.2024 21:30";68
"12.04.2024 21:45";68
"12.04.2024 22:00";68
"12.04.2024 22:15";68
"12.04.2024 22:30";68
"12.04.2024 22:45";68
"12.04.2024 23:00";68
"12.04.2024 23:15";68
"12.04.2024 23:30";68
"12.04.2024 23:45";68
"13.04.2024 00:00";68
"13.04.2024 00:15";68
"13.04.2024 00:30";68
"13.04.2024 00:45";68
"13.04.2024 01:00";68
"13.04.2024 01:15";68
"13.04.2024 01:30";68
"13.04.2024 01:45";68
"13.04.2024 02:00";68
"13.04.2024 02:15";68
"13.04.2024 02:30";68
"13.04.2024 02:45";68
"13.04.2024 03:00";68
"13.04.2024 03:15";68
"13.04.2024 03:30";68
"13.04.2024 03:45";68
"13.04.2024 04:00";68
"13.04.2024 04:15";68
"13.04.2024 04:30";68
"13.04.2024 04:45";68
"13.04.2024 05:00";68
"13.04.2024 05:15";69
"13.04.2024 05:30";68
"13.04.2024 05:45";68
"13.04.2024 06:00";69
"13.04.2024 06:15";68
"13.04.2024 06:30";68
"13.04.2024 06:45";68
"13.04.2024 07:00";68
"13.04.2024 07:15";68
"13.04.2024 07:30";68
"13.04.2024 07:45";68
"13.04.2024 08:00";69
"13.04.2024 08:15";68
"13.04.2024 08:30";68
"13.04.2024 08:45";68
"13.04.2024 09:00";68
"13.04.2024 09:15";68
"13.04.2024 09:30";68
"13.04.2024 09:45";68
"13.04.2024 10:00";69
"13.04.2024 10:15";68
"13.04.2024 10:30";68
"13.04.2024 10:45";69
"13.04.2024 11:00";68
"13.04.2024 11:15";68
"13.04.2024 11:30";68
"13.04.2024 11:45";68
"13.04.2024 12:00";68
"13.04.2024 12:15";69
"13.04.2024 12:30";68
"13.04.2024 12:45";68
"13.04.2024 13:00";68
"13.04.2024 13:15";68
"13.04.2024 13:30";68
"13.04.2024 13:45";68
"13.04.2024 14:00";68
"13.04.2024 14:15";68
"13.04.2024 14:30";68
"13.04.2024 14:45";68
"13.04.2024 15:00";68
"13.04.2024 15:15";68
"13.04.2024 15:30";68
"13.04.2024 15:45";68
"13.04.2024 16:00";68
"13.04.2024 16:15";68
"13.04.2024 16:30";68
"13.04.2024 16:45";68
"13.04.2024 17:00";68
"13.04.2024 17:15";68
"13.04.2024 17:30";68
"13.04.2024 17:45";68
"13.04.2024 18:00";68
"13.04.2024 18:15";67
"13.04.2024 18:30";68
"13.04.2024 18:45";68
"13.04.2024 19:00";67
"13.04.2024 19:15";68
"13.04.2024 19:30";68
"13.04.2024 19:45";67
"13.04.2024 20:00";68
"13.04.2024 20:15";68
"13.04.2024 20:30";68
"13.04.2024 20:45";68
"13.04.2024 21:00";68
"13.04.2024 21:15";67
"13.04.2024 21:30";68
"13.04.2024 21:45";68
"13.04.2024 22:00";68
"13.04.2024 22:15";68
"13.04.2024 22:30";68
"13.04.2024 22:45";68
"13.04.2024 23:00";67
"13.04.2024 23:15";67
"13.04.2024 23:30";68
"13.04.2024 23:45";68
"14.04.2024 00:00";68
"14.04.2024 00:15";68
"14.04.2024 00:30";68
"14.04.2024 00:45";68
"14.04.2024 01:00";68
"14.04.2024 01:15";67
"14.04.2024 01:30";68
"14.04.2024 01:45";68
"14.04.2024 02:00";68
"14.04.2024 02:15";68
"14.04.2024 02:30";68
"14.04.2024 02:45";68
"14.04.2024 03:00";68
"14.04.2024 03:15";68
"14.04.2024 03:30";68
"14.04.2024 03:45";68
"14.04.2024 04:00";68
"14.04.2024 04:15";68
"14.04.2024 04:30";68
"14.04.2024 04:45";68
"14.04.2024 05:00";68
"14.04.2024 05:15";68
"14.04.2024 05:30";68
"14.04.2024 05:45";68
"14.04.2024 06:00";67
"14.04.2024 06:15";68
"14.04.2024 06:30";68
"14.04.2024 06:45";68
"14.04.2024 07:00";68
"14.04.2024 07:15";68
"14.04.2024 07:30";68
"14.04.2024 07:45";68
"14.04.2024 08:00";68
"14.04.2024 08:15";68
"14.04.2024 08:30";68
"14.04.2024 08:45";68
"14.04.2024 09:00";68
"14.04.2024 09:15";68
"14.04.2024 09:30";68
"14.04.2024 09:45";68
"14.04.2024 10:00";68
"14.04.2024 10:15";68
"14.04.2024 10:30";68
"14.04.2024 10:45";68
"14.04.2024 11:00";68
"14.04.2024 11:15";68
"14.04.2024 11:30";68
"14.04.2024 11:45";68
"14.04.2024 12:00";68
"14.04.2024 12:15";68
"14.04.2024 12:30";68
"14.04.2024 12:45";68
"14.04.2024 13:00";68
"14.04.2024 13:15";68
"14.04.2024 13:30";68
"14.04.2024 13:45";68
"14.04.2024 14:00";68
"14.04.2024 14:15";68
"14.04.2024 14:30";68
"14.04.2024 14:45";68
"14.04.2024 15:00";68
"14.04.2024 15:15";67
"14.04.2024 15:30";68
"14.04.2024 15:45";68
"14.04.2024 16:00";68
"14.04.2024 16:15";68
"14.04.2024 16:30";68
"14.04.2024 16:45";68
"14.04.2024 17:00";68
"14.04.2024 17:15";67
"14.04.2024 17:30";68
"14.04.2024 17:45";67
"14.04.2024 18:00";68
"14.04.2024 18:15";68
"14.04.2024 18:30";68
"14.04.2024 18:45";67
"14.04.2024 19:00";68
"14.04.2024 19:15";67
"14.04.2024 19:30";68
"14.04.2024 19:45";67
"14.04.2024 20:00";68
"14.04.2024 20:15";68
"14.04.2024 20:30";68
"14.04.2024 20:45";68
"14.04.2024 21:00";67
"14.04.2024 21:15";67
"14.04.2024 21:30";67
"14.04.2024 21:45";68
"14.04.2024 22:00";68
"14.04.2024 22:15";67
"14.04.2024 22:30";68
"14.04.2024 22:45";67
"14.04.2024 23:00";67
"14.04.2024 23:15";67
"14.04.2024 23:30";68
"14.04.2024 23:45";67
"15.04.2024 00:00";67
"15.04.2024 00:15";67
"15.04.2024 00:30";67
"15.04.2024 00:45";67
"15.04.2024 01:00";68
"15.04.2024 01:15";68
"15.04.2024 01:30";67
"15.04.2024 01:45";68
"15.04.2024 02:00";67
"15.04.2024 02:15";68
"15.04.2024 02:30";67
"15.04.2024 02:45";68
"15.04.2024 03:00";68
"15.04.2024 03:15";68
"15.04.2024 03:30";68
"15.04.2024 03:45";68
"15.04.2024 04:00";67
"15.04.2024 04:15";67
"15.04.2024 04:30";67
"15.04.2024 04:45";67
"15.04.2024 05:00";67
"15.04.2024 05:15";67
"15.04.2024 05:30";67
"15.04.2024 05:45";68
"15.04.2024 06:00";67
"15.04.2024 06:15";67
"15.04.2024 06:30";67